Regional Weather Roundup
Issued by NWS Kansas City/Pleasant Hill, MO

Home | Current Version | Previous Version | Graphics & Text | Print | Product List | Glossary Off
Versions: 1 2 3 4 5 6 7 8 9 10 11 12 13 14 15 16 17 18 19 20 21 22 23 24 25 26 27 28 29 30 31 32 33 34 35 36 37 38 39 40 41 42 43 44 45 46 47 48 49 50

000
ASUS43 KEAX 222010
RWREAX

WEATHER ROUNDUP FOR EASTERN KANSAS AND NORTHWEST MISSOURI
NATIONAL WEATHER SERVICE KANSAS CITY/PLEASANT HILL MO
200 PM CST SUN JAN 22 2017

KSZ040-057-103>105-MOZ028-029-037-043-222100-
...KANSAS CITY METROPOLITAN AREA...

CITY           SKY/WX    TMP DP  RH WIND       PRES   REMARKS
K.C. INTL      CLOUDY    34  29  82 NW16G23   29.72R WCI  24
K.C. DOWNTOWN  CLOUDY    37  31  78 N13G20    29.72S WCI  29
LEES SUMMIT    CLOUDY    36  32  85 NW16G26   29.69R WCI  26
OLATHE - IXD   CLOUDY    34  31  88 NW18G26   29.72R FOG     WCI  23
OLATHE - OJC   CLOUDY    34  31  88 N18G28    29.70R WCI  23
LAWRENCE       CLOUDY    35  32  88 NW18      29.75S FOG     WCI  24

$$

MOZ001>008-011>017-020>025-030>033-038>040-044>046-053-054-222100-
...NORTHERN AND CENTRAL MISSOURI...

CITY           SKY/WX    TMP DP  RH WIND       PRES   REMARKS
ST. JOSEPH     CLOUDY    36  34  92 N14       29.76S WCI  27
MOSBY          CLOUDY    34  32  93 NW13G23   29.72S WCI  25
WARRENSBURG    CLOUDY    39  37  93 NW18G24   29.66R WCI  30
WHITEMAN AFB   LGT RAIN  41  41 100 N15       29.64R FOG     WCI  33
CLINTON        LGT RAIN  46  43  87 N14       29.64R
SEDALIA        LGT RAIN  44  41  89 N17       29.66R
WARSAW         NOT AVBL
CHILLICOTHE      N/A     38  34  85 N10G21    29.70F WCI  31
KIRKSVILLE     CLOUDY    37  36  96 NW13      29.66S FOG     WCI  29

$$

MOZ041-047>049-056>058-063>065-088>090-097-222100-
...EASTERN AND SOUTHERN MISSOURI...

CITY           SKY/WX    TMP DP  RH WIND       PRES   REMARKS
ST. LOUIS INTL CLOUDY    52  45  77 N10       29.51R
SPIRIT OF STL  CLOUDY    51  46  83 NE8       29.52R HAZE
COLUMBIA       CLOUDY    47  42  83 NW10      29.59R
JEFFERSON CITY LGT RAIN  47  41  80 NW12      29.58S
ROLLA          CLOUDY    47  43  86 N16       29.50S
OSAGE BEACH    RAIN      44  42  93 NW7       29.59R FOG
SPRINGFIELD    LGT RAIN  46  43  89 N17       29.56R
BRANSON        LGT RAIN  46  46 100 N17G30    29.48R FOG
JOPLIN         LGT RAIN  46  44  93 N20G26    29.63R
WEST PLAINS    LGT RAIN  50  47  89 N16G23    29.45R

$$

IAZ060-094-KSZ022-034>040-054-083-096-NEZ052-066-093-222100-
...KANSAS...SOUTHEAST NEBRASKA AND IOWA...

CITY           SKY/WX    TMP DP  RH WIND       PRES   REMARKS
TOPEKA         CLOUDY    37  31  78 NW15G23   29.77S WCI  28
MANHATTAN      CLOUDY    39  31  72 N14G21    29.81R WCI  31
EMPORIA        SUNNY     49  31  49 N17G26    29.72S
CHANUTE        CLOUDY    48  37  65 N18G28    29.68R
WICHITA        MOSUNNY   52  30  43 N24       29.77S
OMAHA          CLOUDY    37  31  78 N8        29.80R WCI  31
LINCOLN        CLOUDY    38  32  79 NW15      29.83R WCI  29
FALLS CITY     CLOUDY    38  32  79 NW14G21   29.77F WCI  30
LAMONI         CLOUDY    38  35  89 NW12      29.70F WCI  30
DES MOINES     CLOUDY    38  35  89 NW8       29.72S FOG     WCI  32

$$




USA.gov is the U.S. government's official web portal to all federal, state and local government web resources and services.